International Virtual Aviation Organisation

Russian Federation and Kazakhstan MCD

 

Карточка аэропорта ULAA

Внимание!
Информация на этой странице в стадии наполнения.
Если вы не увидели какой-то информации, или заметили неточность - пожалуйста сообщите нам!
Спасибо!
Команда RU-STAFF
Название аэропортаТалаги
Название аэропорта (англ.)Talagi
Превышение62 ft. (18.9 m.)
Координаты64°36.018', 40°43.002'
Высота перехода800m
Эшелон переходаQFE>=760mm:FL040; QFE<760=>733:FL050; QFE<733:FL060
Коды ответчика3120-3127
Зона ОрВДАрхангельск РПИ (ULAA)
Данные METARULAA 191600Z 18004MPS 9999 BKN026 19/15 Q1014 R08/CLRD68 NOSIG RMK QFE760/1013
Проноз погоды (TAF)ULAA 191400Z 1915/2015 16003MPS 9999 BKN015 TEMPO 1915/2010 18005G12MPS 3100 -SHRA BKN011CB BECMG 2010/2012 24004MPS TEMPO 2012/2015 27006G12MPS 5000 -SHRA BKN012CB
NOTAMshow/hide NOTAM
AWOS   TABLE

Информация о ВПП


Диспетчерские позиции

Позывной Наименование органа УВД Частота
ULAA_APPАрхангельск-Подход122.0
ULAA_TWRАрхангельск-Вышка121.8



Спутниковое изображение